Preview of NWS' New Version of Forecast
This preview is not operational and should not be used for support decisions.

Regional Weather Roundup (RWR)

Issued by National Weather Service (NWS)

                            
000
ASUS43 KMKX 201410
RWRWI 

WISCONSIN REGIONAL WEATHER ROUNDUP
NATIONAL WEATHER SERVICE MILWAUKEE/SULLIVAN WI
800 AM CST WED FEB 20 2019

NOTE: "FAIR" INDICATES FEW OR NO CLOUDS BELOW 12,000 FEET WITH NO
SIGNIFICANT WEATHER AND/OR OBSTRUCTIONS TO VISIBILITY.

WIZ001-002-006>008-014>016-023>028-201500-
NORTHWEST WISCONSIN
  
CITY           SKY/WX    TMP DP  RH WIND       PRES   REMARKS
SUPERIOR ARPT  CLOUDY    15   9  76 E7        30.04F WCI   5          
ASHLAND        CLOUDY    14   8  77 NE6       30.05F WCI   5          
HAYWARD        LGT SNOW  19  10  68 E5        29.97F WCI  12          
SIREN          SNOW      17  13  88 NE6       29.96F VSB 1/2 WCI   8  
CUMBERLAND     LGT SNOW  18  14  86 E10       29.93F VSB 3/4 WCI   6  
RICE LAKE      SNOW      19  17  94 E9        29.95F VSB 1/2 WCI   7  
CHETEK         LGT SNOW  18  15  91 E6        29.95F VSB 3/4 WCI   9  
LADYSMITH      LGT SNOW  20  16  85 E10       29.98F WCI   8          
EAU CLAIRE     LGT SNOW  22  18  85 E14G23    29.91F VSB 1   WCI   9  
MENOMONIE      LGT SNOW  18  15  87 NE13      29.91F VSB 1   WCI   5  
NEW RICHMOND   SNOW      20  17  86 E15       29.88F VSB 1/2 WCI   7  
OSCEOLA        SNOW      20  18  92 E9        29.93F VSB 1/2 WCI   9  
$$
 
WIZ003>005-009-010-017-018-201500-
NORTH CENTRAL WISCONSIN
  
CITY           SKY/WX    TMP DP  RH WIND       PRES   REMARKS
MANITOWISH WTR NOT AVBL                                               
ARBOR VITAE    CLOUDY    18  13  80 SE10      29.99F WCI   6          
WOODRUFF       CLOUDY    18  13  80 SE10      29.99F WCI   6          
RHINELANDER    LGT SNOW  19  13  77 E10       29.99F WCI   7          
EAGLE RIVER    FLURRIES  16  10  80 SE6       30.01F WCI   7          
LAND O LAKES   CLOUDY    17  12  82 SE7       30.03F WCI   7          
PHILLIPS       CLOUDY    17  12  81 SE7       29.96F WCI   8          
TOMAHAWK       LGT SNOW  19  15  86 E5        29.99F WCI  12          
MEDFORD        LGT SNOW  19  15  88 E9G18     29.93F WCI   7          
MERRILL        LGT SNOW  19  17  89 E6        29.99F WCI  11          
$$
 
WIZ029-030-035-036-043>047-201500-
CENTRAL WISCONSIN
  
CITY           SKY/WX    TMP DP  RH WIND       PRES   REMARKS
WAUSAU         LGT SNOW  19  15  84 E10       29.98F FOG     WCI   7  
MOSINEE        LGT SNOW  19  18  93 E12G21    29.98F VSB 1   WCI   7  
MARSHFIELD     SNOW      20  18  92 E17G28    29.91F VSB 1/2 WCI   5  
STEVENS POINT  MIX PCPN  20  19  96 E14       29.98F VSB 1   WCI   7  
WAUPACA        LGT SNOW  24  20  86 E9        30.02F VSB 1   WCI  14  
WAUTOMA        LGT SNOW  24  22  91 E14       29.97F FOG     WCI  12  
WISC RAPIDS    LGT SNOW  22  16  78 E13G24    29.95F WCI  10          
CAMP DOUGLAS   SNOW      25  25 100 E20G29    29.89F VSB 1/2 WCI  11  
$$
 
WIZ011>013-019>022-031-037>040-048>050-201500-
NORTHEAST WISCONSIN
  
CITY           SKY/WX    TMP DP  RH WIND       PRES   REMARKS
ANTIGO         LGT SNOW  17  15  91 E18       30.01F WCI   1          
SHAWANO        LGT SNOW  20  16  84 NE8       30.07F WCI  11          
OCONTO         CLOUDY    22  20  92 E6        30.11F WCI  14          
STURGEON BAY   LGT SNOW  26  22  84 E8        30.13F FOG     WCI  18  
GREEN BAY      LGT SNOW  24  20  84 NE10      30.08F FOG     WCI  14  
MANITOWOC      LGT SNOW  27  25  93 E22       30.05F FOG     WCI  12  
APPLETON       LGT SNOW  23  18  80 E10       30.03F WCI  12          
CLINTONVILLE   LGT SNOW  22  18  86 E10       30.04F WCI  11          
OSHKOSH        LGT SNOW  26  23  88 E12       30.01F FOG     WCI  16  
$$
 
WIZ032>034-041-042-053>061-201500-
SOUTHWEST WISCONSIN
  
CITY           SKY/WX    TMP DP  RH WIND       PRES   REMARKS
LA CROSSE      SNOW      26  24  92 E7        29.85F VSB 1/2 WCI  18  
SPARTA         LGT SNOW  25  23  91 E15       29.88F VSB 1   WCI  12  
VIROQUA        CLOUDY    25  25 100 E20G25    29.81F WCI  11          
BOSCOBEL       LGT SNOW  28  24  85 E10G20    29.84F VSB 3/4 WCI  19  
PRAIRIE DU CHI LGT SNOW  28  24  84 E13G23    29.81S WCI  17          
PLATTEVILLE    CLOUDY    27  27 100 E21       29.81F VSB 1   WCI  14  
$$

WIZ056-057-062-063-064-067-068-201500-
SOUTH CENTRAL WISCONSIN
  
CITY           SKY/WX    TMP DP  RH WIND       PRES   REMARKS
REEDSBURG      MIX PCPN  25  24  97 E8G17     29.89F WCI  16          
BARABOO/DELLS  LGT SNOW  25  24  94 E14G21    29.89F WCI  14          
LONE ROCK      LGT SNOW  28  25  88 E18G29    29.87F FOG     WCI  15  
MINERAL POINT  LGT SNOW  30  30 100 E18G24    29.81F VSB 1   WCI  18  
MADISON        LGT SNOW  28  24  85 E16       29.89F BLWGSNOWWCI  16  
MIDDLETON      CLOUDY    29  26  90 E15G23    29.89F WCI  18          
WATERTOWN      CLOUDY    28  27  95 E15G24    29.91F WCI  17          
MONROE         LGT SNOW  27  26  94 MISG      29.84F VSB 1            
JANESVILLE     LGT SNOW  30  30 100 E20G25    29.89F WCI  18          
$$
 
WIZ051-052-058>065-066-070>072-201500-
SOUTHEAST WISCONSIN
  
CITY           SKY/WX    TMP DP  RH WIND       PRES   REMARKS
MILWAUKEE      FLURRIES  31  23  72 E22G31    29.99F WCI  18          
WAUKESHA       CLOUDY    27  25  93 E16G25    29.96F WCI  14          
MILWAUKEE/TIMM CLOUDY    28  21  74 E16G23    29.99F WCI  17          
RACINE         CLOUDY    31  24  75 E21G32    29.97F WCI  18          
KENOSHA        CLOUDY    32  27  81 E23       29.95F WCI  19          
FOND DU LAC    LGT SNOW  27  23  85 E12       30.00F FOG     WCI  17  
SHEBOYGAN      LGT SNOW  27  22  81 E15G22    30.03F WCI  15          
WEST BEND      CLOUDY    28  27  93 E17G24    29.98F WCI  16          
JUNEAU         LGT SNOW  27  25  91 E16       29.94F WCI  15          
$$

LSZ147-162-201500-
LAKE SUPERIOR
  
STATION/POSITION TIME  TEMP    WIND        PRES    WAVE
                       AIR SEA DIR/SP/G            HT/PER
                 (UTC) (F)     (DEG/KT/KT) (MB)    (FT/S)
DEVILS ISLAND    1400   22      80/ 13/ 14 1019.8F
SAXON HARBOR     1340   14      80/  2/  5 1017.6F
$$
 
LMZ867-665-643>646-201500-
LAKE MICHIGAN
  
STATION/POSITION TIME  TEMP    WIND        PRES    WAVE
                       AIR SEA DIR/SP/G            HT/PER
                 (UTC) (F)     (DEG/KT/KT) (MB)    (FT/S)
NORTHPORT PIER   1340   26     130/  7/  9 1021.7F
KEWAUNEE LAKESHO 1348   27     110/ 17/ 19 1019.3F
SHEBOYGAN LAKESH 1400   29     100/ 21/ 23 1018.2F
PORT WASHINGTON  1340   31      90/ 19/ 25 1017.6F
MILWAUKEE LAKESH 1350   31      90/ 22/ 26   N/A
KENOSHA   LAKESH 1400   31     110/ 27/ 30 1014.2
$$

TC  - TEMPERATURE IN CELSIUS
VSB - VISIBILITY IN STATUTE MILES
WCI - WIND CHILL INDEX
HX  - HEAT INDEX